This demonstration page uses our WeatherBlox Daily Observations layout. Learn more.

Left ArrowRight Arrow

39.51506, -84.39828

Hourly Observations for June 16, 2018

Temp ( °F °C ) Dew Point ( °F °C ) Humidity (%) Winds ( mph kmh ) Pressure ( in mb ) Visibility ( mi km ) Precip ( " mm )
12:15 am 00:15 Clear 65 18.4 62 16.9 91 91 N 5 7 30.00 1016 10 16 N/A
12:35 am 00:35 Clear 65 18.1 62 16.9 93 93 N N/A 30.00 1016 10 16 N/A
12:55 am 00:55 Clear 65 18.4 63 17 92 92 N N/A 30.00 1016 10 16 N/A
1:15 am 01:15 Clear 65 18.1 63 17 93 93 N N/A 30.00 1016 10 16 N/A
1:35 am 01:35 Clear 65 18.2 63 17 93 93 N N/A 30.00 1016 10 16 N/A
1:55 am 01:55 Clear 66 18.8 63 17.1 90 90 N N/A 30.00 1016 10 16 N/A
2:15 am 02:15 Clear 66 18.8 63 17.1 90 90 N N/A 30.00 1016 10 16 N/A
2:35 am 02:35 Clear 65 18.2 62 16.7 91 91 N N/A 30.00 1016 10 16 N/A
2:55 am 02:55 Clear 64 17.8 62 16.6 93 93 N N/A 30.00 1016 10 16 N/A
3:15 am 03:15 Clear 64 17.6 62 16.9 96 96 N N/A 30.00 1016 10 16 N/A
3:35 am 03:35 Clear 63 17.4 62 16.8 96 96 N N/A 30.00 1016 10 16 N/A
3:55 am 03:55 Clear with Mist and Fog 63 17.3 62 16.4 94 94 N N/A 30.00 1016 4 6 N/A
4:15 am 04:15 Clear 63 17 61 16.3 96 96 N N/A 30.00 1016 10 16 N/A
4:35 am 04:35 Clear 63 17 62 16.5 97 97 N N/A 30.00 1016 10 16 N/A
4:55 am 04:55 Clear 62 16.9 61 16.1 95 95 N N/A 30.00 1016 10 16 N/A
5:15 am 05:15 Clear 63 17.2 62 16.5 96 96 N N/A 30.00 1016 10 16 N/A
5:35 am 05:35 Clear 62 16.9 61 16.3 96 96 N N/A 30.00 1016 10 16 N/A
5:55 am 05:55 Clear 62 16.8 61 16.3 97 97 N N/A 30.00 1016 10 16 N/A
6:15 am 06:15 Sunny 62 16.8 61 16.3 97 97 N N/A 30.03 1017 10 16 N/A
6:35 am 06:35 Sunny 63 17 62 16.5 97 97 N N/A 30.03 1017 10 16 N/A
6:55 am 06:55 Sunny 63 17.4 62 16.6 95 95 N N/A 30.03 1017 10 16 N/A
7:15 am 07:15 Sunny 65 18.2 64 17.6 96 96 N N/A 30.03 1017 10 16 N/A
7:35 am 07:35 Sunny 66 19.1 64 17.9 93 93 N N/A 30.03 1017 10 16 N/A
7:55 am 07:55 Sunny 69 20.3 65 18.1 87 87 N N/A 30.06 1018 10 16 N/A
8:15 am 08:15 Mostly Cloudy 70 21.2 65 18.1 83 83 N N/A 30.06 1018 10 16 N/A
8:35 am 08:35 Mostly Cloudy with Haze 71 21.8 65 18.2 80 80 N N/A 30.06 1018 7 11 N/A
8:55 am 08:55 Mostly Cloudy 73 22.6 66 18.9 80 80 N N/A 30.06 1018 10 16 N/A
9:15 am 09:15 Sunny 76 24.7 66 18.8 70 70 SW 5 7 30.06 1018 10 16 N/A
9:35 am 09:35 Partly Cloudy 78 25.3 65 18.4 66 66 SSW 6 9 30.03 1017 10 16 N/A
9:55 am 09:55 Sunny 79 26 65 18.3 63 63 SSW 8 13 30.03 1017 10 16 N/A
10:15 am 10:15 Partly Cloudy 79 26.3 66 18.7 63 63 S 8 13 30.03 1017 10 16 N/A
10:35 am 10:35 Sunny 81 27.2 65 18.6 59 59 SSW 9 15 30.00 1016 10 16 N/A
10:55 am 10:55 Sunny 83 28.3 66 19 57 57 SSW 8 13 29.97 1015 10 16 N/A
11:15 am 11:15 Sunny 83 28.6 66 18.8 55 55 SW 6 9 29.97 1015 10 16 N/A
11:35 am 11:35 Partly Cloudy 85 29.2 67 19.3 55 55 S 6 9 30.00 1016 10 16 N/A
11:55 am 11:55 Partly Cloudy 85 29.2 67 19.5 56 56 S 7 11 30.00 1016 10 16 N/A
12:15 pm 12:15 Partly Cloudy 85 29.7 67 19.7 55 55 SSW 6 9 30.00 1016 10 16 N/A
12:35 pm 12:35 Sunny 87 30.4 69 20.5 55 55 S 7 11 29.97 1015 10 16 N/A
12:55 pm 12:55 Sunny 87 30.4 68 20.2 54 54 SW 5 7 29.97 1015 10 16 N/A
1:15 pm 13:15 Sunny 88 30.9 69 20.5 54 54 SW 10 17 29.97 1015 10 16 N/A
1:35 pm 13:35 Sunny 87 30.8 69 20.8 55 55 SSW 7 11 29.97 1015 10 16 N/A
1:55 pm 13:55 Sunny 88 31.1 71 21.4 56 56 N N/A 29.97 1015 10 16 N/A
2:15 pm 14:15 Sunny 89 31.6 72 22.1 57 57 WSW 5 7 29.97 1015 10 16 N/A
2:35 pm 14:35 Sunny 89 31.9 71 21.8 55 55 SW 7 11 29.97 1015 10 16 N/A
2:55 pm 14:55 Partly Cloudy 90 32 72 22.4 57 57 S 8 13 29.97 1015 10 16 N/A
3:15 pm 15:15 Sunny 90 32.3 72 22.2 55 55 N N/A 29.97 1015 10 16 N/A
3:35 pm 15:35 Sunny 91 32.6 72 22 54 54 SW 6 9 29.97 1015 10 16 N/A
3:55 pm 15:55 Partly Cloudy 91 32.7 72 22.1 54 54 S 6 9 29.94 1014 10 16 N/A
4:15 pm 16:15 Sunny 92 33.2 72 22.4 53 53 SW 9 15 29.94 1014 10 16 N/A
4:35 pm 16:35 Partly Cloudy 91 32.6 71 21.9 53 53 WSW 8 13 29.94 1014 10 16 N/A
4:55 pm 16:55 Cloudy with Thunderstorms 78 25.5 67 19.6 70 70 NNW 16 26 30.00 1016 7 11 N/A
5:15 pm 17:15 Cloudy with Thunderstorms 74 23.6 68 20 80 80 NNE 16 26 30.00 1016 7 11 0.04 1.02
5:35 pm 17:35 Mostly Cloudy with Thunderstorms 72 22 68 20.2 90 90 ENE 10 17 30.00 1016 4 6 0.34 8.64
5:55 pm 17:55 Partly Cloudy 73 22.8 71 21.4 92 92 N 5 7 30.00 1016 10 16 0.35 8.89
6:15 pm 18:15 Partly Cloudy 74 23.2 71 21.5 90 90 NE 6 9 30.00 1016 10 16 N/A
6:35 pm 18:35 Sunny 76 24.2 71 21.6 85 85 N N/A 30.00 1016 10 16 N/A
6:55 pm 18:55 Cloudy 76 24.4 71 21.9 86 86 SSW 5 7 30.00 1016 10 16 N/A
7:15 pm 19:15 Sunny 79 26.1 69 20.7 72 72 N N/A 30.00 1016 10 16 N/A
7:35 pm 19:35 Partly Cloudy 80 26.6 69 20.7 70 70 SSW 3 6 29.97 1015 10 16 N/A
7:55 pm 19:55 Sunny 78 25.6 72 22.3 82 82 WNW 3 6 29.97 1015 10 16 N/A
8:15 pm 20:15 Sunny 78 25.3 71 21.9 82 82 SSW 3 6 29.97 1015 10 16 N/A
8:35 pm 20:35 Sunny 77 24.9 72 22.1 85 85 N N/A 29.97 1015 10 16 N/A
8:55 pm 20:55 Sunny 75 24.1 72 22.3 90 90 N N/A 29.97 1015 10 16 N/A
9:15 pm 21:15 Clear 74 23.6 73 22.6 94 94 NNE 3 6 30.00 1016 7 11 N/A
9:35 pm 21:35 Clear 74 23.4 73 22.5 95 95 NE 7 11 30.00 1016 10 16 N/A
9:55 pm 21:55 Clear 74 23.1 72 22.2 95 95 N N/A 30.03 1017 10 16 N/A
10:15 pm 22:15 Partly Cloudy 73 22.8 72 22.2 96 96 N N/A 30.03 1017 7 11 N/A
10:35 pm 22:35 Clear with Mist and Fog 72 22.1 71 21.7 98 98 W 3 6 30.03 1017 4 6 N/A
10:55 pm 22:55 Clear with Mist and Fog 71 21.9 71 21.6 98 98 N N/A 30.03 1017 5 8 N/A
11:15 pm 23:15 Mostly Cloudy with Mist and Fog 71 21.7 70 21.3 98 98 N N/A 30.03 1017 2 3 N/A
11:35 pm 23:35 Clear with Mist and Fog 71 21.6 70 21.3 98 98 N N/A 30.03 1017 3 4 N/A
11:55 pm 23:55 Clear with Mist and Fog 71 21.8 70 21.3 97 97 N N/A 30.03 1017 7 11 N/A

Powered by AerisWeather